Theta_e
329 329 328 330 334 334 335 333 330 331 330 328 329 333 336 336 334 337 336 335 334 334 332 331 329 321 320 326 329 327 327 326 322 316 315 314 314 316 316 313 314 315 328 329 322 319 317 317 315
329 328 329 331 336 337 335 330 332 331 330 330 331 333 333 337 337 336 337 335 334 334 334 333 332 323 320 326 329 330 328 327 323 321 319 317 315 313 312 312 312 311 311 329 329 319 320 318 314
329 328 332 335 336 337 334 330 331 328 328 328 330 331 331 334 336 338 336 334 334 334 334 333 330 322 322 323 330 332 330 329 327 321 316 314 315 312 311 311 310 310 312 315 327 323 323 319 315
329 328 328 335 336 332 332 330 328 329 328 327 328 329 333 335 337 338 334 333 334 334 333 333 329 320 320 322 328 332 332 331 328 320 319 314 313 311 310 310 316 312 310 312 317 328 327 318 317
328 329 334 335 334 330 328 329 329 330 328 327 326 327 331 335 333 333 334 334 335 334 333 332 329 323 318 318 322 329 332 329 324 319 322 321 319 316 312 311 311 311 310 311 313 318 318 319 317
330 329 335 337 333 329 328 328 329 329 329 330 327 325 330 332 331 333 333 333 335 333 332 331 328 325 321 317 315 319 325 326 321 319 328 321 321 321 319 317 316 314 311 310 310 310 311 312 314
333 333 334 334 333 330 329 327 329 330 330 327 324 324 331 334 332 332 333 332 331 332 331 329 328 327 326 323 319 316 318 316 317 317 324 329 321 319 320 320 318 317 314 313 311 310 310 310 310
328 331 332 332 332 331 328 328 328 329 328 325 329 325 328 333 329 331 332 330 329 329 328 327 328 327 327 327 325 323 320 317 314 316 317 320 314 317 317 318 316 316 317 316 315 313 313 313 312
325 333 334 332 332 331 327 329 327 328 329 330 330 327 327 328 329 333 333 330 330 329 327 326 325 326 325 325 325 326 325 324 322 319 318 318 319 318 317 316 317 318 318 317 317 316 314 313 313
327 333 333 329 329 330 327 329 328 331 330 332 332 325 323 327 329 329 329 328 328 327 325 324 324 323 323 322 322 322 323 324 323 323 323 323 323 323 323 321 320 318 318 318 318 317 316 317 318
323 331 325 323 325 328 328 328 329 331 332 331 329 329 321 327 329 328 326 323 321 323 323 322 322 322 322 322 322 322 322 322 323 323 324 324 324 324 323 324 324 324 322 320 319 319 320 321 322
326 323 323 322 322 326 328 328 329 330 330 329 331 327 321 324 324 323 323 323 323 323 324 325 325 325 324 324 324 324 323 323 323 323 323 323 323 324 324 325 325 325 325 324 323 322 320 321 322
324 323 322 321 321 325 325 326 329 329 326 327 329 326 323 325 325 323 324 324 324 324 324 324 324 324 324 324 324 323 323 323 323 322 322 321 321 321 321 321 322 323 325 326 326 324 324 324 323
322 322 322 322 322 322 325 324 324 327 326 326 327 329 327 326 324 324 323 323 324 324 324 324 325 325 325 324 323 323 324 324 323 321 321 320 320 320 320 321 321 321 322 325 327 328 327 326 325
322 324 323 323 323 323 323 325 326 323 326 327 328 331 330 326 325 324 324 323 324 323 324 325 326 327 326 326 325 324 324 324 323 322 321 321 321 322 322 323 323 323 323 324 325 326 327 328 328
323 323 324 322 322 322 323 332 327 322 324 327 328 330 328 327 325 325 325 324 324 324 324 325 326 327 327 326 325 325 325 324 322 321 321 321 322 323 325 325 325 325 326 326 327 327 324 325 326
323 327 324 323 321 322 323 328 320 320 321 324 326 327 329 329 327 325 325 325 324 324 324 325 325 325 326 326 325 323 324 324 322 321 321 321 320 321 322 323 322 322 324 327 328 329 327 324 324
324 325 323 324 319 321 323 324 322 319 319 322 322 322 322 325 326 327 327 326 326 325 325 325 325 324 324 325 326 324 323 323 322 322 321 318 318 319 319 319 318 316 316 318 325 329 328 323 325
320 321 322 320 318 320 322 323 323 321 320 321 322 321 321 320 321 321 322 322 321 322 322 322 322 323 323 322 323 325 323 323 323 323 319 318 318 318 318 316 315 313 314 315 319 327 327 325 324
320 320 321 320 318 319 320 320 320 319 318 318 319 319 319 319 319 319 319 319 319 319 320 320 320 320 322 322 322 324 324 323 323 322 318 318 317 317 315 314 313 314 315 316 319 325 327 325 326
322 321 320 319 319 317 318 319 318 317 316 316 316 317 318 318 318 317 317 316 317 317 318 319 320 320 320 320 321 322 322 322 322 319 318 317 316 315 313 313 313 314 316 318 323 326 325 324 325
323 321 321 321 322 322 317 322 319 316 315 313 314 314 314 313 312 311 312 312 313 314 315 317 318 319 320 320 320 320 320 320 319 317 317 316 313 312 313 314 315 316 317 320 326 325 323 323 323
318 319 320 320 320 321 319 319 318 313 313 313 313 310 311 312 313 313 313 313 313 313 313 315 317 319 319 319 319 319 318 317 317 316 316 313 312 313 313 315 317 318 320 327 329 328 327 325 326
317 318 318 318 319 317 314 314 312 312 312 312 311 311 312 311 312 312 312 313 313 313 313 313 314 315 316 316 316 316 316 315 315 314 312 312 312 313 313 316 319 321 323 323 322 322 321 325 325
317 316 318 319 319 312 312 315 312 311 310 312 311 312 311 312 312 312 312 313 313 314 314 313 312 313 314 315 315 315 314 314 313 312 312 312 313 313 313 314 320 322 323 322 320 321 321 321 321
317 314 316 316 317 314 312 314 314 313 312 311 310 310 310 311 312 312 312 312 311 313 314 315 314 314 314 314 314 314 313 312 311 311 311 312 312 312 312 312 315 317 319 320 319 320 321 320 321
317 317 313 313 308 315 314 314 312 313 312 310 310 308 311 311 311 311 312 311 310 310 311 313 314 314 314 314 313 312 311 311 310 311 311 311 311 311 311 311 312 314 315 316 318 318 318 318 318
316 315 316 317 317 316 313 312 313 311 311 310 310 311 310 311 311 312 312 311 311 310 309 310 312 312 312 312 312 311 311 310 310 310 310 310 310 310 310 310 310 311 312 313 314 315 315 316 316
315 316 316 316 315 314 313 312 311 312 311 311 311 311 311 311 311 312 311 311 311 310 310 310 310 311 311 311 311 311 310 310 310 310 309 309 309 309 309 309 309 309 309 310 312 313 313 313 312
313 314 315 318 317 316 315 313 309 309 309 309 309 309 310 311 311 311 311 311 310 309 309 309 309 309 309 309 309 309 310 309 309 309 309 308 308 308 308 308 308 308 307 307 308 309 308 305 304
Wind_Speed
2 4 10 5 4 2 5 5 1 8 7 4 7 4 2 4 2 3 12 16 15 15 14 11 8 8 10 11 11 10 7 5 5 5 5 5 6 5 4 4 5 4 4 2 2 5 6 7 7
1 9 8 3 4 4 5 5 8 7 6 11 8 6 3 3 3 8 14 14 16 15 12 10 8 8 9 10 10 8 7 5 4 3 2 3 3 4 5 5 4 5 7 4 1 4 5 6 6
5 9 3 3 2 2 5 8 9 12 11 6 5 2 3 4 5 15 10 16 18 16 13 10 7 7 9 10 11 8 5 3 2 1 1 2 4 4 4 4 4 5 4 4 3 2 2 4 6
6 4 1 5 5 3 3 12 10 14 3 4 5 6 4 5 14 8 15 16 17 16 13 11 8 7 8 9 10 10 7 6 5 1 1 3 3 3 4 5 4 4 3 3 4 3 1 2 4
9 3 3 3 3 4 3 12 20 11 7 8 6 6 7 11 11 12 15 16 16 15 14 11 8 6 6 8 10 12 11 8 5 2 2 2 2 2 2 2 2 2 2 3 4 5 3 2 3
4 2 6 7 5 4 7 12 12 7 6 6 5 10 7 13 14 16 16 15 15 14 13 10 8 6 4 4 6 8 8 7 4 3 2 1 1 0 1 0 1 0 0 2 3 4 5 5 5
4 4 5 6 9 8 8 12 11 8 8 5 9 6 5 13 16 19 17 14 13 12 10 8 7 5 4 4 4 5 6 5 4 4 5 6 3 1 3 3 2 1 1 1 2 4 4 4 5
2 2 7 6 12 7 12 14 5 9 7 8 4 4 7 15 21 21 19 16 15 14 12 11 10 8 6 5 5 4 4 4 5 5 4 4 2 2 3 3 3 4 4 4 4 4 5 5 6
1 5 8 9 13 9 15 10 6 5 9 5 5 3 8 21 24 21 19 19 17 16 13 12 10 9 8 7 6 6 6 5 4 4 5 5 5 5 6 6 6 7 7 7 7 7 7 7 8
2 5 8 6 8 12 19 13 14 7 9 5 5 6 17 22 24 23 23 21 19 16 15 13 12 10 9 8 7 6 6 6 5 5 6 6 7 7 8 8 8 9 10 10 10 9 9 9 9
3 1 3 4 4 12 18 11 11 8 7 8 12 14 21 22 21 21 20 18 16 15 15 14 13 12 11 9 8 7 7 6 6 6 6 6 7 8 9 10 10 11 12 13 13 13 13 12 12
2 4 2 3 5 11 14 14 10 11 2 5 7 15 21 22 21 20 19 17 17 15 13 12 12 11 11 11 10 10 9 8 7 7 8 9 10 10 10 11 12 13 13 14 15 16 16 16 15
3 3 4 3 6 9 12 9 8 11 5 6 11 16 20 19 19 18 18 17 16 16 14 13 12 11 11 13 13 12 12 11 9 10 11 12 12 12 12 13 14 15 16 16 17 18 18 18 18
4 2 2 2 4 6 9 3 4 9 11 6 11 15 18 19 19 19 20 18 18 15 15 14 14 13 13 13 14 14 15 14 13 12 12 12 13 14 14 15 16 16 18 18 19 19 20 20 21
2 1 1 2 2 3 6 3 9 4 14 9 10 12 15 19 19 20 19 19 18 16 16 16 16 16 16 16 16 17 17 17 15 15 15 16 18 19 19 20 21 20 22 21 22 22 21 21 20
2 1 4 1 1 3 4 14 9 6 7 10 9 12 16 18 19 19 19 20 20 19 18 18 18 19 19 19 19 19 20 20 18 18 18 20 22 24 25 26 26 25 27 26 26 25 25 25 24
1 6 4 1 2 2 4 6 2 6 6 7 8 9 10 13 18 20 20 21 22 21 21 22 22 22 22 22 23 23 23 23 22 21 21 23 25 26 28 29 29 29 31 30 29 27 26 24 24
7 8 4 6 4 1 1 11 2 4 4 8 9 10 11 16 20 20 22 23 23 25 26 28 28 27 27 28 28 27 26 26 26 24 23 23 25 27 28 30 31 32 32 31 31 29 26 24 23
3 2 5 1 3 2 5 11 13 6 7 11 13 12 13 18 23 25 27 26 28 31 34 34 35 33 32 32 32 32 31 30 28 27 25 25 27 28 30 31 32 31 30 29 29 27 26 27 26
8 7 5 2 2 3 4 9 13 12 12 13 15 18 21 25 29 29 29 31 30 33 33 32 31 31 31 30 31 33 33 32 30 28 26 27 29 30 31 31 30 29 27 25 25 25 26 27 25
11 13 9 7 1 2 7 15 10 3 8 13 19 24 27 26 26 28 24 29 31 33 32 31 29 25 25 27 29 31 32 32 30 28 26 27 29 30 28 28 27 26 25 24 23 24 27 27 25
15 8 9 6 3 7 3 7 5 5 7 10 17 16 13 14 18 23 22 22 20 21 24 28 28 29 27 26 26 28 30 30 28 26 26 27 26 27 27 25 24 22 22 22 24 25 27 26 27
4 7 6 4 6 5 9 6 3 2 6 13 11 1 1 7 10 10 10 10 10 14 20 22 24 23 23 24 25 26 27 27 25 25 26 26 24 23 24 23 20 19 19 21 24 26 27 29 30
13 10 7 4 2 6 9 8 8 6 10 4 5 4 6 6 7 8 10 12 12 12 15 18 21 21 21 21 23 24 24 23 22 23 23 22 22 21 21 19 17 17 19 20 21 24 26 24 28
6 13 4 4 4 6 4 6 7 6 10 8 5 8 4 6 7 8 6 5 8 10 7 9 13 16 16 15 17 18 19 20 21 22 21 21 20 19 18 18 17 18 20 21 23 25 26 25 27
11 9 4 7 6 5 4 7 2 12 12 6 9 7 5 2 6 12 18 20 19 16 11 7 5 7 10 12 14 16 18 19 21 21 21 20 20 19 19 20 18 19 22 23 24 23 24 24 26
6 7 1 0 2 2 6 6 9 10 12 7 6 2 3 4 9 14 16 20 20 17 15 12 8 8 9 11 13 14 17 20 21 21 21 21 20 20 22 23 23 23 23 25 26 27 28 28 29
3 9 3 1 3 6 5 5 8 6 10 4 7 4 6 8 9 8 12 18 19 15 14 14 13 10 10 12 14 17 18 19 20 21 22 23 23 24 25 26 27 27 28 28 29 30 30 31 32
5 5 3 4 3 3 4 4 6 14 9 11 9 5 5 7 6 1 9 18 18 14 13 12 12 13 14 16 18 19 19 21 22 24 24 26 27 28 29 30 30 31 31 31 31 30 30 29 28
7 8 9 3 4 4 3 7 0 5 10 11 5 7 7 5 5 14 21 21 17 13 12 12 12 13 16 19 21 21 22 24 26 27 27 28 29 31 32 32 33 33 33 32 31 30 29 27 26
Wind_Direction
342 148 157 150 211 222 138 157 156 152 161 137 140 197 183 42 345 39 147 157 162 169 161 149 141 146 157 156 154 154 146 136 129 137 147 168 185 190 186 181 192 206 179 87 41 37 31 38 39
129 151 151 224 238 198 145 146 180 154 125 131 122 130 154 96 90 132 144 157 160 165 160 155 142 146 160 162 162 163 164 154 134 128 185 198 192 198 201 209 213 206 205 150 310 22 37 29 41
155 156 202 226 222 207 153 168 147 129 135 151 135 106 135 124 131 144 161 158 158 162 162 160 146 151 162 170 167 163 170 153 162 352 175 207 194 196 192 201 205 179 157 149 133 26 31 25 31
152 155 128 241 174 107 129 156 157 148 185 185 164 136 114 140 142 153 157 158 156 159 162 159 152 150 163 172 169 165 188 206 240 250 148 146 159 168 174 175 157 132 129 147 157 167 1 22 13
173 174 182 195 143 118 140 155 158 159 150 154 174 145 134 149 151 158 159 158 160 161 162 161 159 153 157 171 175 174 192 224 247 254 177 132 108 74 132 160 175 183 175 167 202 213 230 315 328
174 198 194 188 157 130 140 159 165 161 156 151 159 145 144 172 160 156 159 160 166 167 164 166 159 151 141 145 165 185 201 216 227 229 200 203 139 96 61 125 127 81 235 210 227 249 271 273 286
202 204 184 171 151 152 156 166 185 166 160 164 151 146 145 172 168 162 159 162 166 166 166 172 172 163 152 145 150 176 198 217 217 215 193 229 220 224 268 263 260 265 245 245 261 256 268 273 277
156 182 153 170 175 161 160 165 190 172 152 152 175 163 162 179 165 162 162 164 166 170 173 178 185 186 184 182 175 186 196 203 208 215 233 217 269 293 268 269 275 276 278 279 278 277 276 278 279
162 196 187 169 175 149 160 170 162 173 149 158 181 158 151 166 164 165 168 170 173 177 178 183 185 190 194 196 202 202 205 213 218 222 243 265 272 275 274 274 277 279 282 281 280 278 277 277 278
297 226 179 157 158 162 166 172 163 174 168 174 159 164 159 171 172 174 177 178 180 183 182 182 187 187 193 197 203 207 214 215 219 226 235 244 253 261 266 271 272 274 276 278 279 277 272 272 276
24 342 152 146 156 168 161 162 165 174 190 191 177 166 168 176 182 185 185 184 181 182 190 186 186 190 192 196 200 202 204 211 218 227 240 250 258 265 270 272 274 274 274 273 273 274 273 272 273
135 44 330 130 153 154 169 155 172 188 138 184 165 178 174 181 188 188 191 189 188 191 193 199 201 205 206 211 214 215 219 223 232 249 259 265 267 271 275 278 279 278 277 275 272 273 271 270 271
32 30 33 51 137 142 149 169 181 194 172 185 185 187 189 189 193 194 197 200 200 202 203 210 218 223 227 230 232 232 233 236 243 253 262 268 273 274 274 277 278 280 278 277 274 272 271 270 269
359 37 54 48 117 128 160 155 182 199 199 176 188 193 198 199 201 204 205 205 213 214 217 222 227 229 236 244 246 246 244 242 246 255 264 266 272 275 275 276 277 279 279 276 273 271 270 269 270
343 198 54 73 64 99 142 174 219 178 196 194 194 196 203 212 212 215 218 219 225 228 233 234 241 242 244 248 250 250 251 249 253 260 265 268 271 274 275 274 275 278 279 276 273 269 268 272 275
223 237 202 113 16 46 215 210 202 184 193 199 200 211 215 220 224 228 231 233 233 238 240 243 245 248 251 253 258 260 255 253 259 263 269 274 275 275 275 277 279 279 275 273 270 269 270 268 271
306 211 184 261 66 342 229 227 74 204 224 219 217 228 235 238 238 239 244 247 248 248 251 252 253 254 257 257 258 262 260 256 259 264 272 279 281 279 277 277 278 277 274 270 267 266 266 269 273
195 212 203 219 48 207 212 256 178 45 245 256 258 258 260 254 250 248 249 256 260 262 260 260 259 258 258 259 258 257 258 258 259 264 271 279 278 278 277 278 279 277 272 268 263 260 265 264 268
148 200 238 308 66 291 242 261 270 284 278 269 264 270 267 261 261 256 256 260 265 265 266 268 267 264 259 257 257 257 259 258 259 261 267 279 279 277 278 278 280 275 272 267 262 256 256 261 260
185 208 227 251 58 281 279 269 277 268 259 256 266 267 266 268 266 266 268 266 267 267 266 270 271 265 259 258 257 255 257 260 259 261 268 279 281 279 278 279 279 276 271 265 260 255 257 262 260
209 214 209 248 284 175 296 268 241 256 245 253 257 256 260 264 276 275 277 276 271 267 269 266 265 265 263 263 259 256 255 257 258 261 272 279 280 280 280 280 277 271 265 260 257 253 256 260 263
216 207 205 197 244 253 354 278 233 256 269 259 255 252 271 282 283 285 285 281 276 272 267 261 262 262 262 261 259 257 256 256 259 266 276 281 282 284 283 280 273 267 259 252 250 250 255 258 260
225 172 189 211 239 283 226 262 235 304 267 247 258 277 60 335 312 304 301 289 286 282 265 260 253 253 255 258 259 256 254 257 263 271 280 283 286 287 286 281 270 263 258 254 253 253 255 258 261
134 117 80 76 157 247 230 236 247 211 241 272 122 15 342 352 338 322 294 282 298 304 269 260 255 254 254 260 263 261 262 265 271 277 278 285 289 288 286 276 268 263 260 260 261 261 262 258 264
180 165 147 196 210 250 149 221 276 262 248 253 299 317 352 1 7 16 35 15 339 341 321 282 267 259 263 264 262 262 265 271 277 279 282 284 286 288 291 285 270 266 268 266 266 264 262 260 264
179 194 186 212 208 228 173 234 229 232 255 256 281 275 295 316 58 68 61 47 30 20 8 350 303 276 271 269 270 273 279 281 281 281 282 280 280 284 288 289 282 273 269 268 271 265 260 260 264
170 205 127 110 124 265 229 238 275 257 263 258 239 202 128 114 103 81 49 35 26 15 6 358 342 319 300 290 289 289 290 289 287 284 281 278 280 283 286 287 285 279 275 273 270 267 267 266 266
205 151 159 223 209 243 236 260 246 197 221 167 159 133 148 136 123 83 23 12 5 5 359 353 343 332 312 303 299 297 296 295 291 285 279 277 279 281 282 283 284 283 280 277 274 272 270 268 266
163 181 186 178 205 235 268 243 220 225 157 159 145 162 171 169 166 194 346 348 353 349 347 341 335 327 320 310 303 299 300 296 292 291 287 284 283 283 282 282 282 281 280 278 275 272 270 267 264
229 216 186 189 196 242 331 256 313 219 174 160 181 222 213 203 291 319 326 331 340 344 340 334 323 312 304 299 296 294 289 290 291 290 289 287 285 283 281 280 279 280 280 278 277 274 270 265 262